Location: 10048 Water Well
(33.8501°N, 106.8364°W)
Time: 00:51:50
(UTC+00:00)

Cosmos 2151 - Pass Details

Date: 11 December 2025
Orbit: 559 x 575 km, 82.5° (Epoch: 19 January)

Event Time Altitude Azimuth Distance (km) Brightness Sun altitude
Rises 13:22:42 0° 191° (S) 2,730 6.5 -8.3°
Reaches altitude 10° 13:24:52 10° 193° (SSW) 1,840 5.6 -7.9°
Maximum altitude 13:28:54 68° 277° (W) 605 2.8 -7.1°
Drops below altitude 10° 13:32:58 10° 1° (N) 1,860 5.3 -6.4°
Sets 13:35:11 0° 4° (N) 2,763 6.2 -5.9°
